This is the latest recevied weather packets stored in our database for station/object SP6PWT-13. If no packets are shown the sender has not sent any weather packets the latest 10 day(s).
| Time | Temp. | Humidity | Pressure | Rain* | Wind** | Luminosity | Snow |
|---|---|---|---|---|---|---|---|
| 1777795367 | 23.33° C | 30% | 1000.7 hPa | 0 mm | - | 57 W/m² | - |
| 1777795067 | 22.22° C | 32% | 1000.7 hPa | 0 mm | - | 56 W/m² | - |
| 1777794766 | 22.22° C | 33% | 1000.6 hPa | 0 mm | - | 55 W/m² | - |
| 1777794466 | 22.22° C | 33% | 1000.7 hPa | 0 mm | - | 53 W/m² | - |
| 1777794166 | 21.67° C | 35% | 1000.8 hPa | 0 mm | - | 53 W/m² | - |
| 1777793864 | 21.11° C | 38% | 1000.9 hPa | 0 mm | - | 52 W/m² | - |
| 1777793554 | 21.11° C | 41% | 1000.7 hPa | 0 mm | - | 53 W/m² | - |
| 1777793254 | 20.56° C | 43% | 1000.7 hPa | 0 mm | - | 52 W/m² | - |
| 1777792953 | 20° C | 43% | 1000.8 hPa | 0 mm | - | 51 W/m² | - |
| 1777792642 | 20° C | 44% | 1000.9 hPa | 0 mm | - | 52 W/m² | - |
| 1777792342 | 19.44° C | 45% | 1001.1 hPa | 0 mm | - | 54 W/m² | - |
| 1777792031 | 19.44° C | 45% | 1000.9 hPa | 0 mm | - | 378 W/m² | - |
| 1777791731 | 18.89° C | 45% | 1001 hPa | 0 mm | - | 387 W/m² | - |
| 1777791420 | 18.89° C | 46% | 1001 hPa | 0 mm | - | 376 W/m² | - |
| 1777791119 | 17.78° C | 47% | 1001 hPa | 0 mm | - | 363 W/m² | - |
| 1777790809 | 17.22° C | 48% | 1000.9 hPa | 0 mm | - | 268 W/m² | - |
| 1777790509 | 17.22° C | 47% | 1000.8 hPa | 0 mm | - | 171 W/m² | - |
| 1777790208 | 17.22° C | 47% | 1001.1 hPa | 0 mm | - | 323 W/m² | - |
| 1777789907 | 16.67° C | 49% | 1001 hPa | 0 mm | - | 209 W/m² | - |
| 1777789606 | 16.67° C | 50% | 1000.8 hPa | 0 mm | - | 48 W/m² | - |
| 1777789305 | 16.67° C | 49% | 1000.8 hPa | 0 mm | - | 210 W/m² | - |
| 1777788994 | 16.67° C | 50% | 1000.9 hPa | 0 mm | - | 211 W/m² | - |
| 1777788694 | 16.11° C | 51% | 1000.9 hPa | 0 mm | - | 268 W/m² | - |
| 1777788394 | 15.56° C | 53% | 1000.9 hPa | 0 mm | - | 253 W/m² | - |
| 1777788083 | 15.56° C | 53% | 1000.9 hPa | 0 mm | - | 236 W/m² | - |
* Rain latest hour (hover to see other rain measurements)
** Current wind speed in m/s (hover to see current wind gust speed)